Weather in Pagadian

Philippines     7°47′59″N   123°23′17″E
В апреле 2022 года жителям России запретили посещать сайт meteo.paraplan.net по решению Генеральной прокуратуры. Аудитория сайта уменьшилась в 10 раз. Владельцы сайта не видят смысла в поддержке погодного сервера в таких условиях. Сайт будет закрыт в октябре.
temp.,
°C
wind,
m/s
gust,
m/s
humid.,
%
clouds,
%
prec.,
mm/h
press.,
hPa
HPBL,
m
3 october, mon
mon323:00+26nnw0081100 0.4 1009110
02:00+26nnw1185100 0.4 1007112
05:00+25n1187100 0.0 1008111
08:00+27nne1181100 0.0 1009281
11:00+28sse2175100 0.6 1008446
14:00+30sse2364100 0.8 1006520
17:00+29se2270100 0.1 1007207
20:00+26nne3482100 0.2 1009216
4 october, tue
tue423:00+26n238499 1.3 1010148
02:00+25n228491 1.3 1009125
05:00+25nne1284100 0.0 1009136
08:00+27nne117898 0.0 1011292
11:00+29sse227298 0.0 1010609
14:00+29se2266100 0.0 1008502
17:00+28e2274100 0.4 1008130
20:00+27nne2282100 1.4 1010104
5 october, wed
wed523:00+26n2386100 0.1 1010148
02:00+26n338554 0.1 1008148
05:00+25n338490 0.0 1008142
08:00+27ne237850 0.0 1010324
11:00+30ese1267100 0.0 1010605
14:00+29se3370100 2.1 1007328
17:00+28nnw0178100 4.9 100860
20:00+27ne2380100 6.1 101096
6 october, thu
thu623:00+26e2383100 0.5 1010217
02:00+26ese128394 0.7 1009253
05:00+26sse128299 0.0 1009238
08:00+27ssw1178100 0.0 1010475
11:00+29sse227099 0.0 1009764
14:00+30sse336662 1.3 1007615
17:00+28e1273100 2.4 1007214
20:00+27nw1176100 3.8 101078
7 october, fri
fri723:00+26n1181100 1.3 1010106
02:00+25n228696 1.5 1009106
05:00+25nne118694 0.1 1009121
08:00+27ne1180100 0.1 1011291
11:00+28se1171100 0.0 1010561
14:00+29s2270100 0.6 1007552
17:00+27se1182100 4.6 100742
20:00+26e1183100 10.3 100934